Location: AstroGeek's Observatory
(41.9520°N, 70.9880°W)
Time: 14:29:09
(UTC-05:00)

ISS - All Passes

Search period start: 22 December 2014 00:00
Search period end: 01 January 2015 00:00
Orbit: 404 x 414 km, 51.6° (Epoch: 22 December)

Date Brightness Start Highest point End Pass type
(mag) Time Alt. Az. Time Alt. Az. Time Alt. Az.
22 Dec - 12:13:16 10° SSW 12:16:19 36° SE 12:19:23 10° ENE daylight
22 Dec - 13:49:53 10° W 13:52:55 33° NNW 13:55:57 10° NE daylight
22 Dec - 15:28:08 10° NW 15:30:14 16° N 15:32:19 10° NE daylight
22 Dec - 17:05:12 10° NW 17:07:43 20° NNE 17:10:14 10° ENE visible
22 Dec - 18:41:25 10° NW 18:44:42 79° NE 18:47:58 10° ESE visible
22 Dec - 20:19:30 10° WSW 20:20:50 12° SW 20:22:10 10° SSW night (unlit)
23 Dec - 11:23:09 10° S 11:25:38 20° SE 11:28:08 10° E daylight
23 Dec - 12:58:45 10° WSW 13:01:59 51° NNW 13:05:13 10° NE daylight
23 Dec - 14:36:50 10° NW 14:39:08 17° N 14:41:26 10° NNE daylight
23 Dec - 16:14:24 10° NNW 16:16:39 17° N 16:18:53 10° NE daylight
23 Dec - 17:50:38 10° NW 17:53:50 46° NNE 17:57:00 10° ESE visible
23 Dec - 19:27:37 10° W 19:30:13 22° SW 19:32:47 10° S visible
24 Dec - 10:34:04 10° SE 10:34:59 11° SE 10:35:55 10° ESE daylight
24 Dec - 12:07:47 10° SW 12:11:05 88° NW 12:14:24 10° NE daylight
24 Dec - 13:45:26 10° WNW 13:48:01 21° NNW 13:50:37 10° NE daylight
24 Dec - 15:23:26 10° NW 15:25:30 15° N 15:27:33 10° NE daylight
24 Dec - 16:59:52 10° NW 17:02:50 30° NNE 17:05:48 10° E visible
24 Dec - 18:36:22 10° WNW 18:39:28 40° SW 18:42:33 10° SSE visible
25 Dec - 11:17:00 10° SW 11:20:13 50° SE 11:23:26 10° ENE daylight
25 Dec - 12:54:02 10° W 12:56:55 27° NNW 12:59:49 10° NE daylight
25 Dec - 14:32:16 10° NW 14:34:18 15° N 14:36:20 10° NE daylight
25 Dec - 16:09:04 10° NW 16:11:45 23° NNE 16:14:25 10° ENE daylight
25 Dec - 17:45:20 10° WNW 17:48:37 76° SW 17:51:52 10° SE visible
26 Dec - 10:26:32 10° SSW 10:29:22 27° SE 10:32:13 10° ENE daylight
26 Dec - 12:02:42 10° W 12:05:50 40° NNW 12:08:59 10° NE daylight
26 Dec - 13:40:53 10° NW 13:43:04 16° N 13:45:15 10° NNE daylight
26 Dec - 15:18:11 10° NW 15:20:34 18° NNE 15:22:57 10° ENE daylight
26 Dec - 16:54:23 10° NW 16:57:39 60° NNE 17:00:53 10° ESE visible
26 Dec - 18:31:46 10° W 18:33:53 16° SW 18:36:00 10° S visible
27 Dec - 09:36:36 10° SSE 09:38:34 15° SE 09:40:32 10° E daylight
27 Dec - 11:11:29 10° WSW 11:14:47 66° NNW 11:18:04 10° NE daylight
27 Dec - 12:49:22 10° WNW 12:51:49 19° NNW 12:54:16 10° NE daylight
27 Dec - 14:27:10 10° NW 14:29:19 16° N 14:31:27 10° NE daylight
27 Dec - 16:03:28 10° NW 16:06:34 37° NNE 16:09:39 10° E daylight
27 Dec - 17:40:10 10° WNW 17:43:04 29° SW 17:45:56 10° SSE visible
28 Dec - 10:20:28 10° SW 10:23:45 69° SE 10:27:02 10° ENE daylight
28 Dec - 11:57:49 10° WNW 12:00:34 24° NNW 12:03:19 10° NE daylight
28 Dec - 13:35:57 10° NW 13:37:59 15° N 13:40:01 10° NE daylight
28 Dec - 15:12:32 10° NW 15:15:23 26° NNE 15:18:12 10° E daylight
28 Dec - 16:48:54 10° WNW 16:52:07 55° SW 16:55:19 10° SE visible
29 Dec - 09:29:41 10° SSW 09:32:45 36° SE 09:35:49 10° ENE daylight
29 Dec - 11:06:18 10° W 11:09:19 32° NNW 11:12:22 10° NE daylight
29 Dec - 12:44:32 10° NW 12:46:38 16° N 12:48:43 10° NE daylight
29 Dec - 14:21:33 10° NW 14:24:06 20° NNE 14:26:38 10° ENE daylight
29 Dec - 15:57:46 10° NW 16:01:04 80° NE 16:04:20 10° ESE daylight
29 Dec - 17:35:52 10° WSW 17:37:10 12° SW 17:38:29 10° SSW visible
30 Dec - 08:39:17 10° S 08:41:47 20° SE 08:44:17 10° E daylight
30 Dec - 10:14:52 10° WSW 10:18:06 51° NNW 10:21:21 10° NE daylight
30 Dec - 11:52:55 10° NW 11:55:14 17° N 11:57:33 10° NNE daylight
30 Dec - 13:30:28 10° NNW 13:32:44 17° N 13:34:59 10° NE daylight
30 Dec - 15:06:42 10° NW 15:09:54 46° NNE 15:13:04 10° ESE daylight
30 Dec - 16:43:39 10° W 16:46:15 22° SW 16:48:50 10° S daylight
31 Dec - 07:49:55 10° SE 07:50:50 11° SE 07:51:46 10° ESE daylight
31 Dec - 09:23:36 10° SW 09:26:55 88° NW 09:30:14 10° NE daylight
31 Dec - 11:01:14 10° WNW 11:03:50 21° NNW 11:06:26 10° NE daylight
31 Dec - 12:39:13 10° NW 12:41:18 15° N 12:43:22 10° NE daylight
31 Dec - 14:15:38 10° NW 14:18:37 30° NNE 14:21:35 10° E daylight
31 Dec - 15:52:07 10° WNW 15:55:14 40° SW 15:58:18 10° SSE daylight
